Maple Lake, MN

10:48 AM CDT on August 30, 2016 (GMT -0500)
Maple Lake Municipal

Weather History for KMGG - August, 2013

Change the Weather History Date:

Saturday, August 17, 2013

  Actual Average (KSTC) Record (KSTC)
Temperature  
Mean Temperature 66 °F 68 °F  
Max Temperature 80 °F 80 °F 94 °F (1934)
Min Temperature 52 °F 56 °F 41 °F (1977)
Degree Days  
Heating Degree Days 0 1  
Month to date heating degree days 17  
Since 1 June heating degree days 112  
Since 1 July heating degree days 34  
Cooling Degree Days 1 4  
Month to date cooling degree days 81  
Year to date cooling degree days 383  
Since 1 June cooling degree days 358  
Growing Degree Days 16 (Base 50)    
Moisture  
Dew Point 58 °F    
Average Humidity 72    
Maximum Humidity 98    
Minimum Humidity 50    
Precipitation  
Precipitation 0.00 in 0.12 in 2.76 in (1926)
Month to date precipitation 1.98  
Year to date precipitation 17.77  
Snow  
Snow 0.00 in 0.00 in 0.00 in ()
Month to date snowfall 0.0  
Since 1 June snowfall 0.0  
Since 1 July snowfall 0.0  
Snow Depth -    
Sea Level Pressure  
Sea Level Pressure 30.17 in    
Wind  
Wind Speed 2 mph (South)    
Max Wind Speed 12 mph    
Max Gust Speed 18 mph    
Visibility 10 miles    
Events      
T = Trace of Precipitation, MM = Missing Value Source: NWS Daily Summary

Daily Weather History Graph

Daily Weather History Graph

Search for Another Location

Airport or City:

Trip Planner

Search our weather history database for the weather conditions in past years. The results will help you decide how hot, cold, wet, or windy it might be!

Date:

Astronomy

Aug. 17, 2013 Rise Set
Actual Time 6:19 AM CDT 8:19 PM CDT
Civil Twilight 5:48 AM CDT 8:50 PM CDT
Nautical Twilight 5:08 AM CDT 9:29 PM CDT
Astronomical Twilight 4:25 AM CDT 10:12 PM CDT
Moon 5:39 PM CDT (8/17) 2:18 AM CDT (8/17)
Length of Visible Light 15h 02m
Length of Day
13h 59m
Waxing Gibbous, 84% of the Moon is Illuminated
Aug 17
Waxing Gibbous
Aug 20
Full
Aug 28
Last Quarter
Sep 5
New
Sep 12
First Quarter

Hourly Weather History & Observations

Time (CDT) Temp. Heat Index Dew Point Humidity Pressure Visibility Wind Dir Wind Speed Gust Speed Precip Events Conditions
12:16 AM 58.8 °F - 56.3 °F 91% 30.19 in 10.0 mi Calm Calm - N/A   Clear
12:36 AM 55.8 °F - 54.1 °F 94% 30.19 in 10.0 mi Calm Calm - N/A   Clear
12:56 AM 56.5 °F - 55.2 °F 96% 30.19 in 10.0 mi Calm Calm - N/A   Clear
1:16 AM 55.2 °F - 53.8 °F 95% 30.19 in 10.0 mi Calm Calm - N/A   Clear
1:36 AM 55.2 °F - 53.8 °F 95% 30.19 in 10.0 mi Calm Calm - N/A   Clear
1:57 AM 54.9 °F - 53.6 °F 96% 30.19 in 10.0 mi Calm Calm - N/A   Clear
2:16 AM 54.9 °F - 54.1 °F 97% 30.19 in 10.0 mi Calm Calm - N/A   Clear
2:36 AM 53.8 °F - 53.1 °F 97% 30.19 in 5.0 mi Calm Calm - N/A   Clear
2:56 AM 52.7 °F - 52.2 °F 98% 30.19 in 5.0 mi Calm Calm - N/A   Clear
3:16 AM 57.9 °F - 57.4 °F 98% 30.19 in 10.0 mi Calm Calm - N/A   Clear
3:36 AM 57.2 °F - 56.3 °F 97% 30.19 in 10.0 mi Calm Calm - N/A   Clear
3:57 AM 58.1 °F - 56.8 °F 96% 30.19 in 10.0 mi Calm Calm - N/A   Clear
4:16 AM 58.5 °F - 57.2 °F 96% 30.19 in 10.0 mi Calm Calm - N/A   Clear
4:36 AM 57.2 °F - 55.8 °F 95% 30.19 in 10.0 mi Calm Calm - N/A   Clear
4:57 AM 57.6 °F - 55.6 °F 93% 30.19 in 10.0 mi Calm Calm - N/A   Clear
5:16 AM 57.7 °F - 55.8 °F 93% 30.19 in 10.0 mi Calm Calm - N/A   Clear
5:36 AM 57.2 °F - 55.2 °F 93% 30.19 in 10.0 mi Calm Calm - N/A   Clear
5:56 AM 57.4 °F - 55.4 °F 93% 30.19 in 10.0 mi Calm Calm - N/A   Clear
6:16 AM 57.2 °F - 55.0 °F 92% 30.19 in 10.0 mi South 3.5 mph - N/A   Clear
6:36 AM 57.6 °F - 55.0 °F 91% 30.20 in 10.0 mi Calm Calm - N/A   Clear
6:56 AM 57.7 °F - 55.4 °F 92% 30.20 in 10.0 mi Calm Calm - N/A   Clear
7:16 AM 58.5 °F - 55.6 °F 90% 30.20 in 10.0 mi Calm Calm - N/A   Clear
7:36 AM 59.4 °F - 56.3 °F 90% 30.20 in 10.0 mi Calm Calm - N/A   Clear
7:57 AM 60.6 °F - 57.0 °F 88% 30.20 in 10.0 mi Calm Calm - N/A   Clear
8:17 AM 62.1 °F - 58.3 °F 87% 30.21 in 10.0 mi Calm Calm - N/A   Clear
8:36 AM 63.9 °F - 58.8 °F 84% 30.20 in 10.0 mi Calm Calm - N/A   Clear
8:56 AM 65.7 °F - 58.6 °F 78% 30.20 in 10.0 mi South 3.5 mph - N/A   Clear
9:16 AM 67.6 °F - 59.4 °F 75% 30.20 in 10.0 mi South 3.5 mph - N/A   Clear
9:36 AM 69.6 °F - 60.1 °F 72% 30.20 in 10.0 mi South 6.9 mph - N/A   Clear
9:56 AM 70.7 °F - 59.2 °F 67% 30.20 in 10.0 mi South 5.8 mph - N/A   Clear
10:16 AM 72.0 °F - 59.7 °F 65% 30.20 in 10.0 mi South 5.8 mph - N/A   Clear
10:36 AM 72.9 °F - 59.2 °F 62% 30.20 in 10.0 mi South 8.1 mph - N/A   Clear
10:56 AM 73.8 °F - 58.6 °F 59% 30.20 in 10.0 mi South 9.2 mph - N/A   Clear
11:17 AM 74.8 °F - 59.7 °F 59% 30.20 in 10.0 mi South 4.6 mph - N/A   Clear
11:36 AM 75.2 °F - 58.8 °F 57% 30.20 in 10.0 mi South 9.2 mph - N/A   Clear
11:56 AM 75.7 °F - 58.8 °F 56% 30.19 in 10.0 mi South 6.9 mph 16.1 mph N/A   Clear
12:16 PM 76.3 °F - 57.9 °F 53% 30.19 in 10.0 mi SSW 11.5 mph 16.1 mph N/A   Clear
12:36 PM 76.6 °F - 57.7 °F 52% 30.19 in 10.0 mi South 9.2 mph - N/A   Clear
12:56 PM 77.7 °F - 58.6 °F 52% 30.18 in 10.0 mi SSW 6.9 mph 17.3 mph N/A   Clear
1:16 PM 77.9 °F - 58.8 °F 52% 30.17 in 10.0 mi South 6.9 mph - N/A   Clear
1:36 PM 78.6 °F - 59.2 °F 51% 30.17 in 10.0 mi South 9.2 mph 16.1 mph N/A   Scattered Clouds
1:56 PM 78.6 °F - 59.0 °F 51% 30.17 in 10.0 mi South 8.1 mph 16.1 mph N/A   Scattered Clouds
2:16 PM 77.7 °F - 58.6 °F 52% 30.16 in 10.0 mi South 6.9 mph - N/A   Scattered Clouds
2:36 PM 79.7 °F - 60.3 °F 51% 30.16 in 10.0 mi South 8.1 mph - N/A   Scattered Clouds
2:56 PM 79.0 °F - 59.5 °F 51% 30.15 in 10.0 mi South 8.1 mph 18.4 mph N/A   Scattered Clouds
3:16 PM 79.2 °F - 59.2 °F 50% 30.14 in 10.0 mi South 8.1 mph 18.4 mph N/A   Scattered Clouds
3:36 PM 79.0 °F - 59.4 °F 51% 30.14 in 10.0 mi South 6.9 mph - N/A   Scattered Clouds
3:56 PM 78.6 °F - 59.2 °F 51% 30.14 in 10.0 mi South 8.1 mph - N/A   Scattered Clouds
4:16 PM 80.1 °F 80.9 °F 59.9 °F 50% 30.14 in 10.0 mi SSW 6.9 mph - N/A   Scattered Clouds
4:36 PM 78.8 °F - 58.8 °F 50% 30.14 in 10.0 mi South 9.2 mph 16.1 mph N/A   Scattered Clouds
4:56 PM 79.9 °F - 59.7 °F 50% 30.14 in 10.0 mi South 8.1 mph - N/A   Scattered Clouds
5:17 PM 77.9 °F - 59.0 °F 52% 30.13 in 10.0 mi South 9.2 mph - N/A   Scattered Clouds
5:36 PM 78.8 °F - 58.6 °F 50% 30.13 in 10.0 mi South 8.1 mph 16.1 mph N/A   Clear
5:56 PM 77.9 °F - 58.8 °F 52% 30.13 in 10.0 mi SSE 5.8 mph - N/A   Clear
6:16 PM 78.1 °F - 59.0 °F 52% 30.12 in 10.0 mi South 8.1 mph - N/A   Scattered Clouds
6:36 PM 77.4 °F - 58.5 °F 52% 30.12 in 10.0 mi South 6.9 mph - N/A   Clear
6:57 PM 77.0 °F - 58.6 °F 53% 30.11 in 10.0 mi South 4.6 mph - N/A   Clear
7:16 PM 75.7 °F - 59.4 °F 57% 30.11 in 10.0 mi South 4.6 mph - N/A   Clear
7:36 PM 74.8 °F - 59.0 °F 58% 30.11 in 10.0 mi South 4.6 mph - N/A   Clear
7:56 PM 73.0 °F - 59.4 °F 62% 30.11 in 10.0 mi Calm Calm - N/A   Clear
8:16 PM 71.2 °F - 59.4 °F 66% 30.12 in 10.0 mi Calm Calm - N/A   Clear
8:36 PM 69.4 °F - 59.4 °F 70% 30.12 in 10.0 mi Calm Calm - N/A   Clear
8:56 PM 68.4 °F - 59.2 °F 72% 30.12 in 10.0 mi South 3.5 mph - N/A   Clear
9:16 PM 67.8 °F - 59.0 °F 73% 30.12 in 10.0 mi Calm Calm - N/A   Clear
9:36 PM 67.3 °F - 58.5 °F 73% 30.13 in 10.0 mi Calm Calm - N/A   Clear
9:56 PM 66.9 °F - 58.3 °F 74% 30.13 in 10.0 mi South 4.6 mph - N/A   Clear
10:16 PM 66.9 °F - 58.3 °F 74% 30.12 in 10.0 mi South 3.5 mph - N/A   Clear
10:36 PM 66.4 °F - 58.1 °F 75% 30.12 in 10.0 mi South 4.6 mph - N/A   Clear
10:56 PM 66.2 °F - 58.1 °F 75% 30.11 in 10.0 mi South 4.6 mph - N/A   Clear
11:16 PM 65.3 °F - 57.7 °F 76% 30.11 in 10.0 mi Calm Calm - N/A   Clear
11:36 PM 65.1 °F - 57.6 °F 76% 30.11 in 10.0 mi Calm Calm - N/A   Clear
11:56 PM 65.1 °F - 57.6 °F 76% 30.12 in 10.0 mi South 3.5 mph - N/A   Clear